Weather History for PALU - September, 2013

Change the Weather History Date:

Wednesday, September 11, 2013

  Actual Average Record
Temperature  
Mean Temperature 39 °F -  
Max Temperature 41 °F 41 °F 57 °F (2007)
Min Temperature 37 °F 36 °F 34 °F (1996)
Degree Days  
Heating Degree Days 26    
Moisture  
Dew Point 38 °F    
Average Humidity 92    
Maximum Humidity 100    
Minimum Humidity 75    
Precipitation  
Precipitation 0.03 in - - ()
Sea Level Pressure  
Sea Level Pressure 29.62 in    
Wind  
Wind Speed 7 mph (West)    
Max Wind Speed 18 mph    
Max Gust Speed 26 mph    
Visibility 9 miles    
Events Rain    
Averages and records for this station are not official NWS values.
T = Trace of Precipitation, MM = Missing Value Source: NWS Daily Summary

Daily Weather History Graph

Daily Weather History Graph

Search for Another Location

Airport or City:

Trip Planner

Search our weather history database for the weather conditions in past years. The results will help you decide how hot, cold, wet, or windy it might be!

Date:

Astronomy

Sep. 11, 2013 Rise Set
Actual Time 8:06 AM AKDT 9:53 PM AKDT
Civil Twilight 7:04 AM AKDT 10:54 PM AKDT
Nautical Twilight 5:37 AM AKDT 12:19 AM AKDT
Astronomical Twilight 3:33 AM AKDT 2:28 AM AKDT
Moon 6:48 PM AKDT (9/11) 10:00 PM AKDT (9/11)
Length of Visible Light 15h 50m
Length of Day
13h 46m
Waxing Crescent, 40% of the Moon is Illuminated
Sep 11
Waxing Crescent
Sep 12
First Quarter
Sep 19
Full
Sep 26
Last Quarter
Oct 4
New

Hourly Weather History & Observations

Time (AKDT) Temp. Windchill Dew Point Humidity Pressure Visibility Wind Dir Wind Speed Gust Speed Precip Events Conditions
12:19 AM 37.4 °F - 37.4 °F 100% 29.60 in 10.0 mi SSW 2.3 mph - N/A   Light Drizzle
12:44 AM 37.4 °F - 37.4 °F 100% 29.60 in 4.0 mi SSW 2.3 mph - N/A Rain Light Rain Showers
12:55 AM 37.4 °F - 37.8 °F 100% 29.60 in 10.0 mi SSW 2.3 mph - N/A   Mostly Cloudy
1:09 AM - - - N/A% 29.60 in 10.0 mi WSW 2.3 mph - N/A Rain Light Rain Showers
1:34 AM 39.2 °F 35.9 °F 39.2 °F 100% 29.60 in 1.5 mi WSW 4.6 mph - N/A Rain Light Rain Showers
1:55 AM 39.0 °F 36.8 °F 39.6 °F 100% 29.60 in 1.5 mi West 3.5 mph - N/A Rain Light Rain Showers
2:39 AM 39.2 °F 37.0 °F 39.2 °F 100% 29.60 in 10.0 mi West 3.5 mph - N/A Rain Light Rain Showers
2:55 AM 39.4 °F 37.2 °F 39.9 °F 100% 29.60 in 10.0 mi West 3.5 mph - N/A   Light Drizzle
3:44 AM 39.2 °F 34.2 °F 39.2 °F 100% 29.60 in 10.0 mi West 6.9 mph - N/A   Drizzle
3:55 AM 39.9 °F 35.8 °F 39.9 °F 100% 29.60 in 10.0 mi West 5.8 mph - 0.00 in Rain Light Rain
4:09 AM 41.0 °F 37.1 °F 39.2 °F 93% 29.60 in 10.0 mi WNW 5.8 mph - N/A Rain Light Rain
4:55 AM 40.5 °F 36.5 °F 40.3 °F 99% 29.60 in 10.0 mi NW 5.8 mph - N/A   Drizzle
5:54 AM 41.0 °F 36.4 °F 39.2 °F 93% 29.60 in 10.0 mi WNW 6.9 mph - N/A   Light Drizzle
5:55 AM 40.5 °F 35.1 °F 39.7 °F 97% 29.60 in 10.0 mi WNW 8.1 mph - 0.00 in   Light Drizzle
6:20 AM 41.0 °F 35.8 °F 39.2 °F 93% 29.59 in 10.0 mi WNW 8.1 mph - N/A   Light Drizzle
6:55 AM 40.6 °F 34.8 °F 39.9 °F 97% 29.59 in 10.0 mi WNW 9.2 mph - N/A Rain Light Rain Showers
7:25 AM 41.0 °F 34.7 °F 39.2 °F 93% 29.59 in 9.0 mi WNW 10.4 mph - N/A   Overcast
7:50 AM 41.0 °F 35.2 °F 39.2 °F 93% 29.59 in 8.0 mi WNW 9.2 mph 15.0 mph N/A Rain Light Rain Showers
7:55 AM 40.5 °F 35.8 °F 39.9 °F 98% 29.59 in 9.0 mi WNW 6.9 mph 15.0 mph N/A Rain Light Rain Showers
8:20 AM 41.0 °F 36.4 °F 39.2 °F 93% 29.59 in 10.0 mi West 6.9 mph - N/A Rain Light Rain Showers
8:45 AM 41.0 °F 35.8 °F 39.2 °F 93% 29.59 in 10.0 mi West 8.1 mph - N/A Rain Light Rain Showers
8:55 AM 41.0 °F 35.2 °F 39.6 °F 95% 29.59 in 10.0 mi West 9.2 mph - N/A   Overcast
9:30 AM 41.0 °F 33.1 °F 39.2 °F 93% 29.59 in 5.0 mi WNW 15.0 mph - N/A Rain Light Rain Showers
9:55 AM 39.7 °F 30.6 °F 39.4 °F 99% 29.60 in 1.8 mi WNW 18.4 mph - N/A   Drizzle
10:15 AM 39.2 °F 30.2 °F 39.2 °F 100% 29.60 in 6.0 mi WNW 17.3 mph - N/A   Light Drizzle
10:40 AM 39.2 °F 30.2 °F 39.2 °F 100% 29.61 in 10.0 mi WNW 17.3 mph - N/A   Drizzle
10:55 AM 39.4 °F 30.1 °F 38.7 °F 97% 29.61 in 10.0 mi WNW 18.4 mph - N/A   Light Drizzle
11:25 AM 39.2 °F 30.2 °F 39.2 °F 100% 29.61 in 10.0 mi NW 17.3 mph - N/A   Light Drizzle
11:50 AM 39.2 °F 30.8 °F 37.4 °F 93% 29.62 in 10.0 mi NW 15.0 mph - N/A   Overcast
11:55 AM 39.7 °F 32.7 °F 38.1 °F 94% 29.62 in 10.0 mi WNW 11.5 mph - 0.00 in   Overcast
12:20 PM 39.2 °F 32.5 °F 37.4 °F 93% 29.63 in 10.0 mi WNW 10.4 mph - N/A   Overcast
12:45 PM 39.2 °F 31.6 °F 37.4 °F 93% 29.63 in 10.0 mi West 12.7 mph - N/A   Drizzle
12:55 PM 39.7 °F 33.2 °F 37.2 °F 91% 29.64 in 10.0 mi WNW 10.4 mph 19.6 mph N/A Rain Light Rain
1:30 PM 39.2 °F 31.2 °F 35.6 °F 87% 29.64 in 10.0 mi WSW 13.8 mph 18.4 mph N/A   Overcast
1:55 PM 39.9 °F 33.9 °F 36.3 °F 87% 29.64 in 10.0 mi West 9.2 mph - N/A   Mostly Cloudy
2:15 PM 41.0 °F 33.5 °F 33.8 °F 76% 29.64 in 10.0 mi WSW 13.8 mph 26.5 mph N/A   Mostly Cloudy
2:55 PM 40.1 °F 33.2 °F 33.8 °F 78% 29.65 in 10.0 mi WSW 11.5 mph 23.0 mph N/A   Mostly Cloudy
3:55 PM 40.6 °F 34.3 °F 35.2 °F 81% 29.65 in 10.0 mi West 10.4 mph 23.0 mph N/A   Mostly Cloudy
4:55 PM 40.5 °F 34.1 °F 35.6 °F 83% 29.66 in 10.0 mi WNW 10.4 mph 19.6 mph N/A   Overcast
5:55 PM 41.0 °F 33.5 °F 33.6 °F 75% 29.67 in 10.0 mi SW 13.8 mph 25.3 mph N/A   Mostly Cloudy
6:55 PM 41.2 °F 39.2 °F 34.5 °F 77% 29.68 in 10.0 mi Variable 3.5 mph - N/A   Overcast
7:55 PM 41.2 °F 36.0 °F 34.2 °F 76% 29.68 in 10.0 mi WNW 8.1 mph 16.1 mph N/A   Overcast
8:55 PM 41.2 °F 36.0 °F 34.5 °F 77% 29.70 in 10.0 mi WNW 8.1 mph - N/A   Overcast
9:55 PM 41.2 °F 35.5 °F 33.8 °F 75% 29.70 in 10.0 mi WNW 9.2 mph - N/A   Overcast
10:55 PM 41.0 °F - 34.3 °F 77% 29.72 in 10.0 mi SW 2.3 mph - N/A   Overcast
11:55 PM 40.8 °F 36.9 °F 36.1 °F 83% 29.73 in 10.0 mi South 5.8 mph - N/A   Mostly Cloudy